| time (UTC) | temp F | wind direction | speed knots | gust knots | rain 1hr in | rain 24hr in | rain mn in | humidity % | barometer mb |
| 20260903161816 | 89 | 0.0 | 0.9 | 0.00 | 0.00 | 0.00 | 41 | 1017.1 | |
| 20260903160832 | 89 | 0.0 | 0.0 | 0.00 | 0.00 | 0.00 | 41 | 1017.1 | |
| 20260903155802 | 89 | 0.0 | 0.0 | 0.00 | 0.00 | 0.00 | 40 | 1017.3 | |
| 20260903154758 | 89 | 315 | 0.0 | 1.7 | 0.00 | 0.00 | 0.00 | 39 | 1017.2 |
| 20260903153755 | 89 | 0.0 | 0.0 | 0.00 | 0.00 | 0.00 | 43 | 1017.0 | |
| 20260903152751 | 89 | 0.0 | 0.0 | 0.00 | 0.00 | 0.00 | 44 | 1017.2 | |
| 20260903151747 | 89 | 0.0 | 0.9 | 0.00 | 0.00 | 0.00 | 43 | 1017.1 | |
| 20260903150744 | 90 | 0.0 | 0.0 | 0.00 | 0.00 | 0.00 | 42 | 1017.3 | |
| 20260903145740 | 90 | 0.0 | 0.0 | 0.00 | 0.00 | 0.00 | 42 | 1017.4 | |
| 20260903144736 | 89 | 0.0 | 0.0 | 0.00 | 0.00 | 0.00 | 42 | 1017.2 | |
| 20260903143749 | 89 | 0.0 | 0.9 | 0.00 | 0.00 | 0.00 | 43 | 1017.3 | |
| 20260903142723 | 89 | 0.0 | 1.7 | 0.00 | 0.00 | 0.00 | 43 | 1017.5 | |
| 20260903141802 | 90 | 0.0 | 0.9 | 0.00 | 0.00 | 0.00 | 42 | 1017.4 | |
| 20260903140717 | 90 | 135 | 0.0 | 1.7 | 0.00 | 0.00 | 0.00 | 41 | 1017.8 |
| 20260903135713 | 90 | 0 | 0.9 | 3.5 | 0.00 | 0.00 | 0.00 | 41 | 1017.5 |
| 20260903134724 | 90 | 337 | 0.0 | 0.9 | 0.00 | 0.00 | 0.00 | 45 | 1017.7 |
| 20260903133659 | 90 | 0.0 | 0.9 | 0.00 | 0.00 | 0.00 | 45 | 1017.9 | |
| 20260903131752 | 90 | 315 | 0.0 | 1.7 | 0.00 | 0.00 | 0.00 | 45 | 1018.1 |
| 20260903130749 | 90 | 0.0 | 0.9 | 0.00 | 0.00 | 0.00 | 45 | 1018.3 | |
| 20260903125746 | 90 | 0.0 | 0.0 | 0.00 | 0.00 | 0.00 | 44 | 1018.5 | |
| 20260903124737 | 89 | 0.0 | 0.9 | 0.00 | 0.00 | 0.00 | 45 | 1018.3 | |
| 20260903123727 | 88 | 315 | 0.0 | 1.7 | 0.00 | 0.00 | 0.00 | 46 | 1018.6 |
| 20260903122724 | 89 | 315 | 2.6 | 2.6 | 0.00 | 0.00 | 0.00 | 46 | 1018.6 |
| 20260903121742 | 89 | 315 | 0.0 | 1.7 | 0.00 | 0.00 | 0.00 | 47 | 1018.7 |
| 20260903120717 | 89 | 135 | 0.0 | 1.7 | 0.00 | 0.00 | 0.00 | 47 | 1018.9 |
| 20260903115713 | 86 | 0.0 | 0.0 | 0.00 | 0.00 | 0.00 | 52 | 1019.0 | |
| 20260903114703 | 86 | 112 | 0.0 | 0.9 | 0.00 | 0.00 | 0.00 | 52 | 1019.0 |
| 20260903113659 | 88 | 112 | 0.0 | 0.9 | 0.00 | 0.00 | 0.00 | 49 | 1018.8 |
| 20260903112649 | 87 | 315 | 1.7 | 2.6 | 0.00 | 0.00 | 0.00 | 50 | 1018.8 |
| 20260903111646 | 86 | 135 | 1.7 | 3.5 | 0.00 | 0.00 | 0.00 | 51 | 1018.8 |
| 20260903110636 | 88 | 315 | 0.0 | 1.7 | 0.00 | 0.00 | 0.00 | 50 | 1019.1 |
| 20260903105651 | 87 | 135 | 1.7 | 2.6 | 0.00 | 0.00 | 0.00 | 51 | 1019.2 |
| 20260903104626 | 87 | 315 | 0.0 | 0.9 | 0.00 | 0.00 | 0.00 | 51 | 1019.3 |
| 20260903103644 | 84 | 315 | 1.7 | 5.2 | 0.00 | 0.00 | 0.00 | 55 | 1019.4 |
| 20260903102615 | 84 | 135 | 0.0 | 1.7 | 0.00 | 0.00 | 0.00 | 55 | 1019.6 |
| 20260903101611 | 86 | 315 | 0.0 | 0.9 | 0.00 | 0.00 | 0.00 | 52 | 1019.7 |
| 20260903100605 | 85 | 315 | 0.9 | 1.7 | 0.00 | 0.00 | 0.00 | 54 | 1020.0 |
| 20260903095643 | 86 | 337 | 0.9 | 1.7 | 0.00 | 0.00 | 0.00 | 52 | 1019.7 |
| 20260903094601 | 85 | 270 | 0.0 | 1.7 | 0.00 | 0.00 | 0.00 | 54 | 1019.9 |
| 20260903093559 | 83 | 292 | 1.7 | 2.6 | 0.00 | 0.00 | 0.00 | 55 | 1019.9 |
| 20260903092554 | 82 | 135 | 0.9 | 3.5 | 0.00 | 0.00 | 0.00 | 56 | 1019.8 |
| 20260903091550 | 84 | 135 | 1.7 | 3.5 | 0.00 | 0.00 | 0.00 | 53 | 1019.6 |
| 20260903090547 | 84 | 315 | 1.7 | 2.6 | 0.00 | 0.00 | 0.00 | 53 | 1019.6 |
| 20260903085537 | 82 | 292 | 1.7 | 2.6 | 0.00 | 0.00 | 0.00 | 55 | 1019.9 |
| 20260903084534 | 81 | 112 | 1.7 | 3.5 | 0.00 | 0.00 | 0.00 | 55 | 1019.6 |
| 20260903083529 | 80 | 337 | 2.6 | 5.2 | 0.00 | 0.00 | 0.00 | 56 | 1019.8 |
| 20260903082526 | 81 | 337 | 1.7 | 2.6 | 0.00 | 0.00 | 0.00 | 56 | 1019.8 |
| 20260903081542 | 82 | 292 | 1.7 | 2.6 | 0.00 | 0.00 | 0.00 | 55 | 1019.8 |
| 20260903075540 | 81 | 315 | 1.7 | 3.5 | 0.00 | 0.00 | 0.00 | 56 | 1019.5 |
| 20260903074537 | 78 | 315 | 2.6 | 5.2 | 0.00 | 0.00 | 0.00 | 58 | 1019.4 |
| 20260903073524 | 78 | 292 | 2.6 | 3.5 | 0.00 | 0.00 | 0.00 | 59 | 1019.3 |
| 20260903072518 | 77 | 315 | 2.6 | 5.2 | 0.00 | 0.00 | 0.00 | 60 | 1019.4 |
| 20260903071515 | 77 | 315 | 2.6 | 3.5 | 0.00 | 0.00 | 0.00 | 60 | 1019.4 |
| 20260903070512 | 77 | 315 | 1.7 | 2.6 | 0.00 | 0.00 | 0.00 | 60 | 1019.4 |
| 20260903064609 | 75 | 315 | 1.7 | 2.6 | 0.00 | 0.00 | 0.00 | 63 | 1019.2 |
| 20260903063545 | 74 | 315 | 1.7 | 3.5 | 0.00 | 0.00 | 0.00 | 65 | 1019.2 |
| 20260903062624 | 74 | 315 | 1.7 | 2.6 | 0.00 | 0.00 | 0.00 | 64 | 1019.1 |
| 20260903061537 | 73 | 315 | 1.7 | 2.6 | 0.00 | 0.00 | 0.00 | 64 | 1019.0 |
| 20260903060528 | 72 | 315 | 1.7 | 1.7 | 0.00 | 0.00 | 0.00 | 67 | 1018.8 |
| 20260903055543 | 71 | 315 | 0.9 | 1.7 | 0.00 | 0.00 | 0.00 | 68 | 1018.8 |
| 20260903054519 | 71 | 292 | 1.7 | 1.7 | 0.00 | 0.00 | 0.00 | 68 | 1018.5 |
| 20260903053516 | 70 | 315 | 0.9 | 1.7 | 0.00 | 0.00 | 0.00 | 70 | 1018.7 |
| 20260903052513 | 70 | 315 | 0.9 | 1.7 | 0.00 | 0.00 | 0.00 | 71 | 1018.5 |
| 20260903051506 | 69 | 315 | 0.9 | 1.7 | 0.00 | 0.00 | 0.00 | 73 | 1018.5 |
| 20260903051002 | 69 | 315 | 0.9 | 1.7 | 0.00 | 0.00 | 0.00 | 74 | 1018.5 |
| 20260903045959 | 68 | 315 | 0.0 | 0.9 | 0.00 | 0.00 | 0.00 | 76 | 1018.4 |
| 20260903044954 | 68 | 315 | 1.7 | 1.7 | 0.00 | 0.00 | 0.00 | 78 | 1018.2 |
| 20260903043951 | 68 | 0.0 | 0.0 | 0.00 | 0.00 | 0.00 | 78 | 1018.5 | |
| 20260903043008 | 68 | 0.0 | 0.0 | 0.00 | 0.00 | 0.00 | 78 | 1018.5 | |
| 20260903041937 | 68 | 0.0 | 0.0 | 0.00 | 0.00 | 0.00 | 78 | 1018.2 | |
| 20260903040935 | 68 | 0.0 | 0.0 | 0.00 | 0.00 | 0.00 | 79 | 1018.2 | |
| 20260903035930 | 68 | 0.0 | 0.0 | 0.00 | 0.00 | 0.00 | 79 | 1018.2 | |
| 20260903034947 | 68 | 0.0 | 0.0 | 0.00 | 0.00 | 0.00 | 79 | 1018.1 | |
| 20260903033943 | 69 | 0.0 | 0.0 | 0.00 | 0.00 | 0.00 | 77 | 1018.1 | |
| 20260903032914 | 69 | 0.0 | 0.0 | 0.00 | 0.00 | 0.00 | 75 | 1018.1 | |
| 20260903031910 | 70 | 0.0 | 0.0 | 0.00 | 0.00 | 0.00 | 74 | 1017.9 | |
| 20260903030949 | 70 | 0.0 | 0.0 | 0.00 | 0.00 | 0.00 | 74 | 1017.6 | |
| 20260903025903 | 70 | 315 | 0.0 | 0.9 | 0.00 | 0.00 | 0.00 | 74 | 1017.8 |
| 20260903024919 | 70 | 0.0 | 0.0 | 0.00 | 0.00 | 0.00 | 75 | 1017.9 | |
| 20260903023510 | 70 | 0.0 | 0.0 | 0.00 | 0.00 | 0.00 | 76 | 1018.1 | |
| 20260903022506 | 70 | 0.0 | 0.0 | 0.00 | 0.00 | 0.00 | 76 | 1017.8 | |
| 20260903021503 | 70 | 0.0 | 0.0 | 0.00 | 0.00 | 0.00 | 77 | 1018.1 | |
| 20260903021001 | 70 | 0.0 | 0.0 | 0.00 | 0.00 | 0.00 | 77 | 1017.9 | |
| 20260903020018 | 70 | 315 | 0.9 | 1.7 | 0.00 | 0.00 | 0.00 | 79 | 1018.1 |
| 20260903014954 | 70 | 0.0 | 0.0 | 0.00 | 0.00 | 0.00 | 79 | 1017.6 | |
| 20260903013953 | 70 | 0.0 | 0.0 | 0.00 | 0.00 | 0.00 | 79 | 1017.7 | |
| 20260903012947 | 70 | 337 | 0.9 | 1.7 | 0.00 | 0.00 | 0.00 | 79 | 1017.7 |
| 20260903011958 | 71 | 0.0 | 0.0 | 0.00 | 0.00 | 0.00 | 79 | 1017.8 | |
| 20260903010934 | 71 | 0.0 | 0.0 | 0.00 | 0.00 | 0.00 | 78 | 1017.8 | |
| 20260903005951 | 71 | 0.0 | 0.0 | 0.00 | 0.00 | 0.00 | 78 | 1017.8 | |
| 20260903004927 | 71 | 0.0 | 0.0 | 0.00 | 0.00 | 0.00 | 77 | 1017.6 | |
| 20260903003923 | 72 | 0.0 | 0.9 | 0.00 | 0.00 | 0.00 | 77 | 1017.6 | |
| 20260903002454 | 72 | 0.0 | 0.0 | 0.00 | 0.00 | 0.00 | 77 | 1017.9 | |
| 20260903001449 | 72 | 0.0 | 0.0 | 0.00 | 0.00 | 0.00 | 76 | 1017.9 | |
| 20260903000440 | 72 | 0.0 | 0.0 | 0.00 | 0.00 | 0.00 | 77 | 1017.9 | |
| 20260902235437 | 71 | 0.0 | 0.0 | 0.00 | 0.00 | 0.00 | 77 | 1017.7 | |
| 20260902234453 | 71 | 0.0 | 0.0 | 0.00 | 0.00 | 0.00 | 78 | 1017.7 | |
| 20260902233429 | 72 | 0.0 | 0.0 | 0.00 | 0.00 | 0.00 | 75 | 1017.8 | |
| 20260902232425 | 73 | 0.0 | 0.0 | 0.00 | 0.00 | 0.00 | 73 | 1017.7 | |
| 20260902231423 | 73 | 0.0 | 0.0 | 0.00 | 0.00 | 0.00 | 74 | 1017.7 | |
| 20260902230438 | 73 | 0.0 | 0.9 | 0.00 | 0.00 | 0.00 | 74 | 1017.7 | |
| 20260902225415 | 73 | 0.0 | 0.0 | 0.00 | 0.00 | 0.00 | 73 | 1017.5 | |
| 20260902224414 | 74 | 315 | 0.0 | 0.9 | 0.00 | 0.00 | 0.00 | 72 | 1017.7 |
| 20260902223408 | 74 | 0.0 | 0.0 | 0.00 | 0.00 | 0.00 | 72 | 1017.6 | |
| 20260902222425 | 74 | 0.0 | 0.9 | 0.00 | 0.00 | 0.00 | 73 | 1017.5 | |
| 20260902221401 | 74 | 0.0 | 0.0 | 0.00 | 0.00 | 0.00 | 74 | 1017.4 | |
| 20260902220352 | 74 | 0.0 | 0.0 | 0.00 | 0.00 | 0.00 | 73 | 1017.3 | |
| 20260902215348 | 75 | 315 | 0.9 | 1.7 | 0.00 | 0.00 | 0.00 | 72 | 1017.4 |
| 20260902214345 | 76 | 0.0 | 0.9 | 0.00 | 0.00 | 0.00 | 71 | 1017.3 | |
| 20260902213341 | 77 | 0.0 | 0.0 | 0.00 | 0.00 | 0.00 | 69 | 1017.2 | |
| 20260902212339 | 77 | 0.0 | 0.0 | 0.00 | 0.00 | 0.00 | 68 | 1017.1 | |
| 20260902211349 | 77 | 0.0 | 0.0 | 0.00 | 0.00 | 0.00 | 67 | 1017.2 | |
| 20260902210324 | 77 | 0.0 | 0.0 | 0.00 | 0.00 | 0.00 | 67 | 1017.1 | |
| 20260902205342 | 78 | 0.0 | 0.0 | 0.00 | 0.00 | 0.00 | 67 | 1017.2 | |
| 20260902204317 | 78 | 0.0 | 0.9 | 0.00 | 0.00 | 0.00 | 66 | 1017.0 | |
| 20260902203314 | 78 | 0.0 | 0.0 | 0.00 | 0.00 | 0.00 | 66 | 1017.1 | |
| 20260902202331 | 78 | 337 | 0.0 | 0.9 | 0.00 | 0.00 | 0.00 | 67 | 1017.1 |
| 20260902201347 | 78 | 0.0 | 0.0 | 0.00 | 0.00 | 0.00 | 66 | 1017.0 | |
| 20260902200303 | 79 | 0.0 | 0.0 | 0.00 | 0.00 | 0.00 | 66 | 1017.0 | |
| 20260902195300 | 79 | 0.0 | 0.0 | 0.00 | 0.00 | 0.00 | 65 | 1017.0 | |
| 20260902194310 | 79 | 0.0 | 0.0 | 0.00 | 0.00 | 0.00 | 64 | 1016.9 | |
| 20260902193246 | 79 | 0.0 | 0.0 | 0.00 | 0.00 | 0.00 | 64 | 1016.9 | |
| 20260902192236 | 80 | 0.0 | 0.0 | 0.00 | 0.00 | 0.00 | 64 | 1016.9 | |
| 20260902191229 | 80 | 0.0 | 0.0 | 0.00 | 0.00 | 0.00 | 63 | 1016.9 | |
| 20260902190226 | 81 | 0.0 | 0.0 | 0.00 | 0.00 | 0.00 | 61 | 1016.7 | |
| 20260902185225 | 82 | 0.0 | 0.0 | 0.00 | 0.00 | 0.00 | 60 | 1016.4 | |
| 20260902184216 | 82 | 0.0 | 0.0 | 0.00 | 0.00 | 0.00 | 59 | 1016.1 | |
| 20260902183213 | 82 | 0.0 | 0.0 | 0.00 | 0.00 | 0.00 | 58 | 1016.3 | |
| 20260902182209 | 83 | 0.0 | 0.0 | 0.00 | 0.00 | 0.00 | 57 | 1016.2 | |
| 20260902181205 | 84 | 0.0 | 0.0 | 0.00 | 0.00 | 0.00 | 55 | 1016.2 | |
| 20260902180202 | 84 | 0.0 | 0.0 | 0.00 | 0.00 | 0.00 | 54 | 1016.3 | |
| 20260902175159 | 85 | 0.0 | 0.0 | 0.00 | 0.00 | 0.00 | 53 | 1016.1 | |
| 20260902174148 | 85 | 337 | 0.0 | 0.9 | 0.00 | 0.00 | 0.00 | 52 | 1015.9 |
| 20260902173139 | 85 | 0.0 | 0.0 | 0.00 | 0.00 | 0.00 | 52 | 1015.8 | |
| 20260902172136 | 86 | 337 | 0.0 | 0.9 | 0.00 | 0.00 | 0.00 | 50 | 1016.0 |
| 20260902171125 | 86 | 0.0 | 0.9 | 0.00 | 0.00 | 0.00 | 48 | 1015.9 | |
| 20260902170121 | 87 | 0.0 | 0.9 | 0.00 | 0.00 | 0.00 | 49 | 1016.0 | |
| 20260902165117 | 87 | 0.0 | 0.9 | 0.00 | 0.00 | 0.00 | 49 | 1015.9 | |
| 20260902164113 | 87 | 0.0 | 0.0 | 0.00 | 0.00 | 0.00 | 48 | 1016.0 |